When you browse on this site, cookies collect data to enhance your experience and personalize the content and advertising you see.
Visit our Privacy Policy to learn more. By continuing to use the site, you agree to this use of cookies and data.
  • In Sweden
  • List of Countries
  • For 7 days
  • Water Temperature
  • Weather Map
  • Weather Widgets
  • user-avatar
    Login

    Hourly Weather Toploe

    Today, 16 September, Monday

    Time Temperature Precipitation Wind Pressure Humidity
    00:00 +9°C° 0 mm 3 mps 741 mmHg 75%
    01:00 +8°C° 0 mm 4 mps 740 mmHg 72%
    02:00 +8°C° 0 mm 4 mps 740 mmHg 68%
    03:00 +8°C° 0 mm 5 mps 740 mmHg 64%
    04:00 +8°C° 0 mm 5 mps 739 mmHg 64%
    05:00 +8°C° 0 mm 5 mps 739 mmHg 65%
    06:00 +8°C° 0 mm 4 mps 738 mmHg 65%
    07:00 +9°C° 0.1 mm 5 mps 738 mmHg 64%
    08:00 +10°C° 0.1 mm 6 mps 737 mmHg 62%
    09:00 +11°C° 0.1 mm 7 mps 737 mmHg 61%
    10:00 +13°C° 0 mm 8 mps 736 mmHg 57%
    11:00 +15°C° 0 mm 8 mps 736 mmHg 53%
    12:00 +16°C° 0 mm 9 mps 735 mmHg 50%
    13:00 +17°C° 0 mm 9 mps 735 mmHg 49%
    14:00 +17°C° 0 mm 9 mps 734 mmHg 48%
    15:00 +17°C° 0 mm 9 mps 734 mmHg 46%
    16:00 +16°C° 0 mm 7 mps 734 mmHg 50%
    17:00 +15°C° 0 mm 6 mps 733 mmHg 54%
    18:00 +14°C° 0 mm 4 mps 733 mmHg 58%
    19:00 +13°C° 0 mm 4 mps 733 mmHg 63%
    20:00 +12°C° 0 mm 4 mps 733 mmHg 69%
    21:00 +11°C° 0 mm 4 mps 734 mmHg 74%
    22:00 +11°C° 0 mm 4 mps 733 mmHg 76%
    23:00 +11°C° 0 mm 4 mps 733 mmHg 79%

    Tomorrow, 17 September, Tuesday

    Time Temperature Precipitation Wind Pressure Humidity
    00:00 +10°C° 0 mm 4 mps 733 mmHg 81%
    01:00 +10°C° 0 mm 4 mps 733 mmHg 82%
    02:00 +10°C° 0 mm 4 mps 733 mmHg 82%
    03:00 +10°C° 0 mm 4 mps 733 mmHg 83%
    04:00 +10°C° 0 mm 4 mps 733 mmHg 84%
    05:00 +8°C° 0 mm 4 mps 733 mmHg 86%
    06:00 +8°C° 0 mm 4 mps 733 mmHg 87%
    07:00 +9°C° 0 mm 5 mps 733 mmHg 79%
    08:00 +11°C° 0 mm 6 mps 733 mmHg 71%
    09:00 +14°C° 0 mm 7 mps 733 mmHg 62%
    10:00 +14°C° 0 mm 7 mps 733 mmHg 59%
    11:00 +15°C° 0 mm 7 mps 733 mmHg 55%
    12:00 +16°C° 0 mm 7 mps 733 mmHg 52%
    13:00 +16°C° 0 mm 7 mps 733 mmHg 51%
    14:00 +16°C° 0 mm 7 mps 732 mmHg 50%
    15:00 +16°C° 0 mm 7 mps 732 mmHg 49%
    16:00 +15°C° 0 mm 6 mps 732 mmHg 54%
    17:00 +14°C° 0 mm 5 mps 732 mmHg 58%
    18:00 +12°C° 0 mm 3 mps 732 mmHg 63%
    19:00 +11°C° 0 mm 3 mps 732 mmHg 64%
    20:00 +11°C° 0 mm 3 mps 733 mmHg 66%
    21:00 +10°C° 0 mm 3 mps 733 mmHg 68%
    22:00 +10°C° 0 mm 3 mps 733 mmHg 69%
    23:00 +9°C° 0 mm 3 mps 733 mmHg 69%

    Day after tomorrow, 18 September, Wednesday

    Time Temperature Precipitation Wind Pressure Humidity
    00:00 +9°C° 0 mm 3 mps 733 mmHg 70%
    01:00 +9°C° 0 mm 3 mps 733 mmHg 71%
    02:00 +9°C° 0 mm 3 mps 733 mmHg 72%
    03:00 +8°C° 0 mm 3 mps 733 mmHg 73%
    04:00 +8°C° 0 mm 3 mps 733 mmHg 74%
    05:00 +7°C° 0 mm 3 mps 733 mmHg 76%
    06:00 +7°C° 0 mm 3 mps 733 mmHg 78%
    07:00 +8°C° 0 mm 4 mps 733 mmHg 71%
    08:00 +10°C° 0 mm 5 mps 733 mmHg 64%
    09:00 +13°C° 0 mm 5 mps 732 mmHg 57%
    10:00 +13°C° 0 mm 6 mps 732 mmHg 56%
    11:00 +14°C° 0 mm 6 mps 732 mmHg 55%
    12:00 +14°C° 0 mm 6 mps 732 mmHg 54%
    13:00 +14°C° 0.1 mm 6 mps 732 mmHg 52%
    14:00 +15°C° 0.1 mm 7 mps 732 mmHg 51%
    15:00 +15°C° 0.1 mm 7 mps 731 mmHg 50%
    16:00 +14°C° 0 mm 6 mps 731 mmHg 55%
    17:00 +13°C° 0 mm 5 mps 730 mmHg 59%
    18:00 +12°C° 0 mm 4 mps 730 mmHg 64%
    19:00 +11°C° 0.2 mm 4 mps 729 mmHg 71%
    20:00 +10°C° 0.2 mm 4 mps 729 mmHg 78%
    21:00 +10°C° 0.2 mm 4 mps 728 mmHg 85%
    22:00 +10°C° 0.5 mm 4 mps 728 mmHg 86%
    23:00 +8°C° 0.5 mm 5 mps 727 mmHg 86%

    19 September, Thursday

    Time Temperature Precipitation Wind Pressure Humidity
    00:00 +8°C° 0.5 mm 5 mps 727 mmHg 87%
    01:00 +8°C° 1.2 mm 7 mps 727 mmHg 86%
    02:00 +6°C° 1.2 mm 8 mps 727 mmHg 86%
    03:00 +5°C° 1.2 mm 10 mps 727 mmHg 86%
    04:00 +5°C° 0.9 mm 10 mps 728 mmHg 87%
    05:00 +5°C° 0.9 mm 9 mps 728 mmHg 88%
    06:00 +5°C° 0.9 mm 9 mps 729 mmHg 88%
    07:00 +6°C° 0.3 mm 9 mps 730 mmHg 86%
    08:00 +6°C° 0.3 mm 8 mps 731 mmHg 84%
    09:00 +7°C° 0.3 mm 8 mps 732 mmHg 82%
    10:00 +7°C° 0.1 mm 8 mps 733 mmHg 80%
    11:00 +9°C° 0.1 mm 8 mps 734 mmHg 78%
    12:00 +9°C° 0.1 mm 8 mps 735 mmHg 75%
    13:00 +9°C° 0.1 mm 8 mps 735 mmHg 73%
    14:00 +10°C° 0.1 mm 8 mps 736 mmHg 71%
    15:00 +10°C° 0.1 mm 8 mps 736 mmHg 68%
    16:00 +9°C° 0.1 mm 7 mps 737 mmHg 70%
    17:00 +8°C° 0.1 mm 6 mps 737 mmHg 73%
    18:00 +8°C° 0.1 mm 5 mps 737 mmHg 75%
    19:00 +7°C° 0 mm 5 mps 738 mmHg 79%
    20:00 +6°C° 0 mm 4 mps 738 mmHg 82%
    21:00 +6°C° 0 mm 4 mps 739 mmHg 85%
    22:00 +5°C° 0 mm 3 mps 739 mmHg 87%
    23:00 +5°C° 0 mm 3 mps 739 mmHg 89%

    20 September, Friday

    Time Temperature Precipitation Wind Pressure Humidity
    00:00 +4°C° 0 mm 3 mps 739 mmHg 91%
    01:00 +4°C° 0 mm 3 mps 739 mmHg 92%
    02:00 +5°C° 0 mm 2 mps 739 mmHg 93%
    03:00 +4°C° 0 mm 2 mps 739 mmHg 94%
    04:00 +4°C° 0 mm 2 mps 739 mmHg 94%
    05:00 +4°C° 0 mm 2 mps 739 mmHg 94%
    06:00 +4°C° 0 mm 2 mps 739 mmHg 94%
    07:00 +5°C° 0 mm 2 mps 740 mmHg 87%
    08:00 +7°C° 0 mm 2 mps 740 mmHg 81%
    09:00 +8°C° 0 mm 2 mps 740 mmHg 75%
    10:00 +9°C° 0.3 mm 2 mps 740 mmHg 73%
    11:00 +10°C° 0.3 mm 3 mps 740 mmHg 71%
    12:00 +11°C° 0.3 mm 3 mps 740 mmHg 69%
    13:00 +11°C° 0.6 mm 3 mps 739 mmHg 69%
    14:00 +11°C° 0.6 mm 4 mps 739 mmHg 68%
    15:00 +11°C° 0.6 mm 4 mps 739 mmHg 68%
    16:00 +10°C° 0.1 mm 4 mps 739 mmHg 73%
    17:00 +9°C° 0.1 mm 3 mps 739 mmHg 78%
    18:00 +7°C° 0.1 mm 3 mps 739 mmHg 83%
    19:00 +7°C° 0 mm 3 mps 739 mmHg 86%
    20:00 +5°C° 0 mm 3 mps 740 mmHg 89%
    21:00 +5°C° 0 mm 2 mps 740 mmHg 92%
    22:00 +5°C° 0 mm 2 mps 740 mmHg 92%
    23:00 +4°C° 0 mm 2 mps 740 mmHg 91%

    21 September, Saturday

    Time Temperature Precipitation Wind Pressure Humidity
    00:00 +4°C° 0 mm 2 mps 740 mmHg 91%
    01:00 +4°C° 0 mm 2 mps 740 mmHg 90%
    02:00 +3°C° 0 mm 2 mps 740 mmHg 90%
    03:00 +3°C° 0 mm 2 mps 740 mmHg 89%
    04:00 +3°C° 0 mm 2 mps 740 mmHg 88%
    05:00 +2°C° 0 mm 2 mps 740 mmHg 87%
    06:00 +3°C° 0 mm 1 mps 740 mmHg 86%
    07:00 +4°C° 0 mm 2 mps 740 mmHg 79%
    08:00 +5°C° 0 mm 2 mps 740 mmHg 71%
    09:00 +7°C° 0 mm 2 mps 741 mmHg 64%
    10:00 +8°C° 0 mm 2 mps 741 mmHg 59%
    11:00 +9°C° 0 mm 2 mps 741 mmHg 55%
    12:00 +9°C° 0 mm 2 mps 740 mmHg 50%
    13:00 +10°C° 0 mm 2 mps 740 mmHg 50%
    14:00 +10°C° 0 mm 3 mps 740 mmHg 49%
    15:00 +10°C° 0 mm 3 mps 740 mmHg 49%
    16:00 +9°C° 0.1 mm 3 mps 740 mmHg 55%
    17:00 +8°C° 0.1 mm 3 mps 740 mmHg 61%
    18:00 +7°C° 0.1 mm 3 mps 740 mmHg 66%
    19:00 +7°C° 0 mm 3 mps 741 mmHg 66%
    20:00 +5°C° 0 mm 3 mps 741 mmHg 66%
    21:00 +5°C° 0 mm 3 mps 741 mmHg 65%
    22:00 +4°C° 0 mm 3 mps 741 mmHg 67%
    23:00 +3°C° 0 mm 3 mps 741 mmHg 69%
    Show more